SCP
0 0 0 0 0 0 0 0 0 0 0 0 0 0 0 0 0 0 0 0 0 0 0 0 0 0 0 0 0 0 0 0 0 0 0 0 0 0 0 0 0 0 0 0
0 0 0 0 0 0 0 0 0 0 0 0 0 0 0 0 0 0 0 0 0 0 0 0 0 0 0 0 0 0 0 0 0 0 0 0 0 0 0 0 0 0 0 0
0 0 0 0 0 0 0 0 0 0 0 0 0 0 0 0 0 0 0 0 0 0 0 0 0 0 0 0 0 0 0 0 0 0 0 0 0 0 0 0 0 0 0 0
0 0 0 0 0 0 0 0 0 0 0 0 0 0 0 0 0 0 0 0 0 0 0 0 0 0 0 0 0 0 0 0 0 0 0 0 0 0 0 0 0 0 0 0
0 0 0 0 0 0 0 0 0 0 0 0 0 0 0 0 0 0 0 0 0 0 0 0 0 0 0 0 0 0 0 0 0 0 0 0 0 0 0 0 0 0 0 0
0 0 0 0 0 0 0 0 0 0 0 0 0 0 0 0 0 0 0 0 0 0 0 0 0 0 0 0 0 0 0 0 0 0 0 0 0 0 0 0 0 0 0 0
0 0 0 0 0 0 0 0 0 0 0 0 0 0 0 0 0 0 0 0 0 0 0 0 0 0 0 0 0 0 0 0 0 0 0 0 0 0 0 0 0 0 0 0
0 0 0 0 0 0 0 0 0 0 0 0 0 0 0 0 0 0 0 0 0 0 0 0 0 0 0 0 0 0 0 0 0 0 0 0 0 0 0 0 0 0 0 0
0 0 0 0 0 0 0 0 0 0 0 0 0 0 0 0 0 0 0 0 0 0 0 0 0 0 0 0 0 0 0 0 0 0 0 0 0 0 0 0 0 0 0 0
0 0 0 0 0 0 0 0 0 0 0 0 0 0 0 0 0 0 0 0 0 0 0 0 0 0 0 0 0 0 0 0 0 0 0 0 0 0 0 0 0 0 0 0
0 0 0 0 0 0 0 0 0 0 0 0 0 0 0 0 0 0 0 0 0 0 0 0 0 0 0 0 0 0 0 0 0 0 0 0 0 0 0 0 0 0 0 0
0 0 0 0 0 0 0 0 0 0 0 0 0 0 0 0 0 0 0 0 0 0 0 0 0 0 0 0 0 0 0 0 0 0 0 0 0 0 0 0 0 0 0 0
0 0 0 0 0 0 0 0 0 0 0 0 0 0 0 0 0 0 0 0 0 0 0 0 0 0 0 0 0 0 0 0 0 0 0 0 0 0 0 0 0 0 0 0
0 0 0 0 0 0 0 0 0 0 0 0 0 0 0 0 0 0 0 0 0 0 0 0 0 0 0 0 0 0 0 0 0 0 0 0 0 0 0 0 0 0 0 0
0 0 0 0 0 0 0 0 0 0 0 0 0 0 0 0 0 0 0 0 0 0 0 0 0 0 0 0 0 0 0 0 0 0 0 0 0 0 0 0 0 0 0 0
0 0 0 0 0 0 0 0 0 0 0 0 0 0 0 0 0 0 0 0 0 0 0 0 0 0 0 0 0 0 0 0 0 0 0 0 0 0 0 0 0 0 0 0
0 0 0 0 0 0 0 0 0 0 0 0 0 0 0 0 0 0 0 0 0 0 0 0 0 0 0 0 0 0 0 0 0 0 0 0 0 0 0 0 0 0 0 0
0 0 0 0 0 0 0 0 0 0 0 0 0 0 0 0 0 0 0 0 0 0 0 0 0 0 0 0 0 0 0 0 0 0 0 0 0 0 0 0 0 0 0 0
0 0 0 0 0 0 0 0 0 0 0 0 0 0 0 0 0 0 0 0 0 0 0 0 0 0 0 0 0 0 0 0 0 0 0 0 0 0 0 0 0 0 0 0
0 0 0 0 0 0 0 0 0 0 0 0 0 0 0 0 0 0 0 0 0 0 0 0 0 0 0 0 0 0 0 0 0 0 0 0 0 0 0 0 0 0 0 0
0 0 0 0 0 0 0 0 0 0 0 0 0 0 0 0 0 0 0 0 0 0 0 0 0 0 0 0 0 0 0 0 0 0 0 0 0 0 0 0 0 0 0 0
0 0 0 0 0 0 0 0 0 0 0 0 0 0 0 0 0 0 0 0 0 0 0 0 0 0 0 0 0 0 0 0 0 0 0 0 0 0 0 0 0 0 0 0
0 0 0 0 0 0 0 0 0 0 0 0 0 0 0 0 0 0 0 0 0 0 0 0 0 0 0 0 0 0 0 0 0 0 0 0 0 0 0 0 0 0 0 0
0 0 0 0 0 0 0 0 0 0 0 0 0 0 0 0 0 0 0 0 0 0 0 0 0 0 0 0 0 0 0 0 0 0 0 0 0 0 0 0 0 0 0 0
0 0 0 0 0 0 0 0 0 0 0 0 0 0 0 0 0 0 0 0 0 0 0 0 0 0 0 0 0 0 0 0 0 0 0 0 0 0 0 0 0 0 0 0
0 0 0 0 0 0 0 0 0 0 0 0 0 0 0 0 0 0 0 0 0 0 0 0 0 0 0 0 0 0 0 0 0 0 0 0 0 0 0 0 0 0 0 0
0 0 0 0 0 0 0 0 0 0 0 0 0 0 0 0 0 0 0 0 0 0 0 0 0 0 0 0 0 0 0 0 0 0 0 0 0 0 0 0 0 0 0 0
Wind_Speed
7 5 3 6 7 7 8 8 9 9 6 7 10 10 9 7 5 4 2 0 3 4 5 6 6 7 7 8 9 10 10 10 11 11 11 11 11 11 12 12 14 13 14 14
5 2 3 6 8 7 7 6 9 8 9 2 6 7 7 6 6 4 2 1 3 4 5 6 6 7 8 9 9 9 9 10 11 12 12 11 11 11 12 12 12 13 14 15
6 7 6 8 6 8 7 8 8 9 7 7 6 8 9 7 6 4 2 1 2 3 4 5 6 6 7 9 9 9 9 10 11 11 12 11 12 12 12 11 11 13 13 14
3 8 5 6 2 5 6 7 8 6 5 9 7 6 5 5 6 5 3 1 1 3 4 4 5 6 7 7 7 8 9 9 10 10 10 10 10 11 10 9 10 10 12 14
1 3 11 9 4 5 5 8 7 8 7 7 10 6 2 4 5 5 4 2 1 1 2 4 5 6 7 7 7 7 8 10 10 10 10 10 11 11 9 9 8 10 11 13
3 2 8 6 2 2 3 8 5 10 12 11 10 3 5 7 6 5 4 2 1 1 2 4 6 6 6 7 7 8 9 10 10 9 9 9 10 9 8 8 9 11 11 11
4 6 13 6 5 5 3 8 5 10 11 13 10 6 7 9 6 5 4 3 2 1 2 4 5 5 6 6 7 8 9 9 9 8 8 8 8 8 9 9 9 9 10 10
5 4 14 6 9 10 10 3 6 7 8 8 7 9 10 8 7 6 4 2 1 2 3 4 5 5 6 6 7 7 8 8 8 7 7 9 8 8 8 8 7 7 7 8
13 13 5 10 10 6 6 7 6 8 7 10 10 8 8 7 7 6 4 3 1 1 3 4 5 4 5 6 7 7 7 8 7 7 6 7 6 7 7 7 5 6 6 7
8 13 7 8 5 5 6 7 7 8 10 10 10 9 8 8 7 5 4 3 1 1 3 4 5 5 5 6 6 6 7 7 7 6 7 6 6 6 6 6 6 5 6 7
9 9 4 5 8 8 7 7 9 8 7 10 12 9 9 8 7 6 4 2 1 0 2 4 4 5 6 6 6 6 7 7 7 7 6 6 7 6 8 5 9 8 5 5
12 10 8 7 8 11 11 10 12 10 8 8 10 10 9 8 6 6 4 3 2 2 2 3 4 5 6 6 6 6 6 7 5 5 5 6 6 8 12 13 17 16 15 13
6 3 4 2 7 11 11 12 11 11 12 10 8 9 10 7 6 5 4 4 3 3 2 2 3 5 5 6 6 5 6 7 5 6 6 6 7 7 9 12 15 16 16 16
5 6 4 5 8 9 10 11 9 8 7 9 9 8 8 7 6 6 6 5 4 3 2 2 3 4 6 6 6 6 6 8 8 5 5 6 6 6 7 8 10 9 11 15
8 7 7 6 9 10 11 11 11 9 9 8 7 9 9 9 8 7 5 4 3 3 2 2 3 4 5 5 6 6 6 5 5 4 5 5 6 6 6 8 8 8 8 10
7 6 8 9 13 13 12 12 13 13 11 10 9 9 9 8 7 6 5 5 4 4 3 3 4 4 5 5 6 5 5 10 9 5 5 6 6 6 7 7 8 8 8 9
12 10 10 11 14 14 16 14 15 15 13 13 12 10 8 7 6 6 6 5 5 4 4 4 4 4 5 5 5 4 4 6 10 7 5 6 5 5 6 7 8 8 8 12
14 14 15 16 18 17 15 12 12 14 13 12 11 10 11 11 10 8 7 5 4 3 4 4 4 4 4 5 4 3 3 4 4 4 5 5 6 5 6 7 8 9 9 11
12 12 12 13 15 16 16 15 14 12 11 12 14 13 11 9 8 7 6 6 5 5 4 4 5 2 4 5 3 1 3 4 4 4 4 8 7 6 7 8 8 9 10 10
11 11 12 12 13 13 13 12 12 12 12 13 12 11 10 9 8 7 7 6 6 5 4 4 4 3 4 4 2 1 3 3 4 5 5 5 6 6 7 8 9 9 10 10
13 12 13 13 13 12 13 14 15 15 14 14 14 14 13 10 8 8 6 6 5 7 6 6 4 3 3 2 1 1 2 3 3 4 5 5 6 7 7 8 9 9 10 10
13 14 14 14 14 13 12 12 13 14 14 13 12 10 10 10 9 7 6 5 4 9 6 4 3 5 4 3 1 1 2 2 3 3 4 5 5 6 7 8 8 9 10 10
12 13 14 14 14 12 11 11 13 14 15 16 15 15 13 11 10 9 7 7 6 10 7 4 7 8 5 3 2 1 1 2 3 3 3 4 5 5 6 8 8 9 9 10
13 13 12 11 12 13 14 13 12 10 11 12 12 12 12 9 7 7 3 9 14 13 7 8 11 9 6 3 2 2 2 2 3 3 3 4 4 5 6 7 7 8 9 11
13 13 14 15 15 13 12 11 10 8 9 7 8 9 9 7 7 8 7 7 12 12 6 9 12 10 5 4 3 3 2 3 2 2 3 4 4 5 6 6 7 8 9 9
12 13 12 12 10 9 10 11 10 10 10 9 9 9 8 6 5 6 7 8 9 11 7 5 5 6 5 4 4 4 3 3 2 2 3 4 4 5 6 7 9 8 9 9
9 8 8 7 7 9 10 11 12 12 12 12 10 10 10 9 8 8 8 8 8 7 6 6 5 5 5 5 5 4 4 3 3 3 3 3 4 4 5 7 7 8 9 9
Wind_Direction
260 272 252 241 230 202 195 202 216 243 238 228 192 177 174 170 172 179 189 344 12 1 346 340 339 337 336 332 334 334 332 332 331 327 326 326 327 327 328 330 334 330 328 325
295 323 294 264 244 222 221 219 236 258 264 187 129 128 151 169 177 184 182 43 14 358 346 340 336 332 333 331 331 331 331 331 330 333 333 333 333 336 336 336 335 335 334 331
291 316 335 291 237 192 211 214 203 224 228 146 150 169 175 180 182 176 155 74 12 346 331 327 326 325 327 325 324 330 330 330 333 335 336 337 340 341 339 337 337 338 337 339
314 352 294 255 170 191 217 241 214 211 168 167 153 142 152 168 171 168 151 119 351 330 325 323 320 322 321 321 327 330 330 331 334 337 338 338 340 341 337 333 338 339 338 343
102 296 279 292 225 194 207 271 209 177 148 123 118 107 180 193 168 165 154 146 171 317 314 320 324 325 326 328 330 333 337 337 336 338 340 342 344 340 335 333 336 341 344 344
142 238 259 258 160 129 87 277 210 158 154 153 152 171 222 177 157 149 141 129 105 12 344 336 327 330 333 333 338 342 339 335 335 340 339 341 340 335 334 334 341 344 344 344
184 234 265 248 154 128 192 259 164 154 157 163 183 186 153 145 149 149 137 123 97 45 355 325 321 332 338 336 339 332 331 333 337 339 335 342 337 332 333 339 340 337 339 340
163 216 259 189 148 189 214 135 136 144 148 147 138 123 134 146 150 148 139 127 93 36 349 323 326 338 338 335 324 324 329 334 335 335 339 350 333 330 330 332 332 331 335 341
193 220 234 175 196 200 149 154 159 150 145 135 138 149 153 154 155 152 150 147 120 26 339 328 331 335 333 321 321 328 331 332 328 331 331 333 327 327 329 332 333 336 339 341
249 261 241 215 217 179 167 160 155 145 145 148 150 155 156 157 160 160 161 160 164 18 354 334 328 331 319 315 321 327 329 327 327 331 332 328 330 334 333 331 331 335 339 337
256 270 283 244 207 178 151 133 130 130 143 152 148 154 160 162 165 166 164 169 178 231 304 312 320 323 320 321 324 330 327 325 328 335 328 328 334 332 335 322 342 346 328 320
227 222 198 226 193 163 151 155 152 142 139 148 154 156 156 161 163 165 170 181 200 240 282 307 318 317 315 317 322 329 332 330 324 327 330 332 327 331 340 346 346 348 346 345
216 178 182 189 158 161 159 157 156 154 155 156 155 152 152 155 163 167 177 192 206 230 265 292 311 313 312 313 320 327 325 323 320 332 329 330 331 330 329 334 341 344 345 342
188 137 155 172 172 161 149 144 136 129 138 148 147 146 147 148 160 177 191 200 210 226 240 272 302 306 304 308 321 326 324 323 328 314 317 319 319 319 320 325 328 328 334 335
198 189 179 155 139 139 139 138 138 144 146 148 150 154 159 164 176 187 192 200 205 208 222 265 293 298 300 311 324 323 324 317 314 313 318 318 318 321 323 325 325 324 323 327
161 139 138 147 158 158 156 158 163 168 167 167 168 172 174 171 170 177 189 193 193 211 228 248 273 285 299 310 318 318 318 332 339 331 324 324 323 328 331 330 328 327 327 323
155 171 172 176 177 177 180 179 175 173 173 177 179 168 159 159 171 190 197 194 202 220 229 233 253 284 297 304 305 307 311 321 340 336 320 318 320 328 329 329 330 330 328 329
192 184 180 181 181 182 184 177 172 172 177 179 161 159 170 180 189 192 187 184 202 233 236 222 242 269 286 295 298 303 311 311 315 316 318 323 336 333 330 332 333 332 331 333
189 179 177 178 179 179 179 178 177 174 165 160 167 178 186 190 185 175 170 180 198 220 227 223 252 273 290 299 332 310 320 322 325 325 322 338 345 334 336 336 336 335 335 338
183 174 172 172 171 173 176 173 166 166 168 168 169 173 183 189 180 172 176 199 212 206 199 214 227 240 266 288 336 319 325 328 329 331 334 337 336 337 338 338 338 337 339 340
180 172 170 171 173 175 173 168 168 171 171 172 177 184 188 184 176 171 178 214 229 205 209 221 203 223 252 245 38 329 324 326 329 329 334 336 334 335 337 338 338 338 339 338
177 175 175 171 171 174 172 170 171 169 169 177 182 177 173 176 181 188 206 210 196 187 189 198 203 232 228 168 149 274 311 320 320 322 327 330 331 331 332 334 335 336 336 333
176 175 173 173 173 168 162 169 172 171 176 181 182 183 185 185 182 186 208 209 193 201 190 192 211 222 192 151 172 226 287 309 314 318 321 320 320 322 324 327 329 329 328 329
170 170 166 158 151 156 172 179 176 178 181 183 186 184 178 176 190 204 201 181 186 194 193 201 210 209 183 164 185 211 247 279 290 301 310 312 311 314 317 320 323 323 324 326
164 159 157 162 172 180 178 166 162 164 169 179 182 183 186 185 183 187 181 183 189 189 185 204 207 202 179 179 195 210 229 251 263 287 303 308 312 315 315 318 321 321 321 323
166 172 176 182 177 166 162 164 173 178 180 184 190 190 190 186 175 165 174 185 195 195 186 191 202 196 178 190 202 211 221 248 285 294 288 296 302 307 311 315 316 315 317 320
150 154 155 161 170 167 168 174 177 181 184 186 185 185 185 184 183 181 180 183 190 195 188 188 190 189 190 196 203 210 215 224 236 249 267 280 290 297 304 308 309 310 312 317